TimeEDT,TemperatureF,Dew PointF,Humidity,Sea Level PressureIn,VisibilityMPH,Wind Direction,Wind SpeedMPH,Gust SpeedMPH,PrecipitationIn,Events,Conditions,WindDirDegrees,DateUTC
12:51 AM,62.1,52.0,70,30.04,10.0,West,4.6,-,N/A,,Mostly Cloudy,270,2013-07-29 04:51:00
1:51 AM,61.0,53.1,75,30.04,10.0,SW,3.5,-,N/A,,Overcast,220,2013-07-29 05:51:00
2:51 AM,60.1,53.1,78,30.04,10.0,WSW,3.5,-,N/A,,Mostly Cloudy,250,2013-07-29 06:51:00
3:51 AM,57.9,52.0,81,30.04,10.0,West,3.5,-,N/A,,Partly Cloudy,260,2013-07-29 07:51:00
4:51 AM,55.9,52.0,87,30.05,10.0,Calm,Calm,-,N/A,,Clear,0,2013-07-29 08:51:00
5:51 AM,55.0,52.0,89,30.06,9.0,Calm,Calm,-,N/A,,Mostly Cloudy,0,2013-07-29 09:51:00
6:51 AM,55.0,52.0,89,30.08,9.0,SSW,3.5,-,N/A,,Scattered Clouds,210,2013-07-29 10:51:00
7:51 AM,59.0,54.0,83,30.09,9.0,SSW,4.6,-,N/A,,Partly Cloudy,200,2013-07-29 11:51:00
8:51 AM,62.1,54.0,75,30.09,9.0,WSW,8.1,-,N/A,,Partly Cloudy,240,2013-07-29 12:51:00
9:51 AM,66.0,53.1,63,30.09,10.0,West,6.9,16.1,N/A,,Partly Cloudy,270,2013-07-29 13:51:00
10:51 AM,68.0,51.1,55,30.10,10.0,West,10.4,20.7,N/A,,Scattered Clouds,280,2013-07-29 14:51:00
11:51 AM,69.1,48.0,47,30.11,10.0,West,18.4,24.2,N/A,,Scattered Clouds,260,2013-07-29 15:51:00
12:51 PM,72.0,48.9,44,30.11,10.0,WNW,11.5,-,N/A,,Scattered Clouds,290,2013-07-29 16:51:00
1:51 PM,71.1,51.1,49,30.13,10.0,WNW,10.4,-,N/A,,Overcast,290,2013-07-29 17:51:00
2:51 PM,69.1,51.1,53,30.13,10.0,West,9.2,-,N/A,,Overcast,260,2013-07-29 18:51:00
3:51 PM,70.0,53.1,55,30.14,10.0,WNW,6.9,-,N/A,,Overcast,290,2013-07-29 19:51:00
4:51 PM,69.1,53.1,57,30.15,10.0,West,4.6,-,N/A,,Overcast,270,2013-07-29 20:51:00
5:51 PM,69.1,54.0,58,30.16,10.0,WSW,5.8,-,N/A,,Overcast,240,2013-07-29 21:51:00
6:51 PM,69.1,55.0,61,30.16,10.0,WSW,4.6,-,N/A,,Overcast,240,2013-07-29 22:51:00
7:51 PM,68.0,55.0,63,30.16,10.0,SW,5.8,-,N/A,,Mostly Cloudy,230,2013-07-29 23:51:00
8:51 PM,66.0,54.0,65,30.17,10.0,WSW,4.6,-,N/A,,Mostly Cloudy,240,2013-07-30 00:51:00
9:51 PM,64.0,55.0,73,30.18,10.0,WSW,3.5,-,N/A,,Mostly Cloudy,240,2013-07-30 01:51:00
10:51 PM,64.0,55.0,73,30.19,10.0,West,3.5,-,N/A,,Mostly Cloudy,270,2013-07-30 02:51:00
11:51 PM,61.0,54.0,78,30.20,10.0,WNW,4.6,-,N/A,,Mostly Cloudy,290,2013-07-30 03:51:00